Regional Weather Roundup
Issued by NWS Northern Indiana

Home | Current Version | Previous Version | Graphics & Text | Print | Product List | Glossary Off
Versions: 1 2 3 4 5 6 7 8 9 10 11 12 13 14 15 16 17 18 19 20 21 22 23 24 25 26 27 28 29 30 31 32 33 34 35 36 37 38 39 40 41 42 43 44 45 46 47 48 49 50

000
ASUS43 KIWX 262310
RWRIWX

KIWX WEATHER ROUNDUP
NATIONAL WEATHER SERVICE NORTHERN INDIANA
700 PM EDT WED JUL 26 2017

NOTE: "FAIR" INDICATES FEW OR NO CLOUDS BELOW 12,000 FEET WITH NO
SIGNIFICANT WEATHER AND/OR OBSTRUCTIONS TO VISIBILITY.

* THESE STATIONS ARE NOT UNDER NWS QUALITY CONTROL. THEY ALSO MAY NOT
  REPORT WEATHER SUCH AS PRECIPITATION OR FOG.

INZ001>027-270000-
NORTHERN INDIANA

CITY           SKY/WX    TMP DP  RH WIND       PRES   REMARKS
GARY*          CLOUDY    82  68  61 S6        29.99F
VALPARAISO     CLOUDY    81  72  74 S6        30.01F
MICHIGAN CITY* PTSUNNY   79  70  73 CALM      30.00F
LAPORTE*       CLOUDY    79  71  78 SE3       30.01F
KNOX*          CLOUDY    79  72  78 S5        30.00F
SOUTH BEND     CLOUDY    80  68  66 SW8       30.02F
ELKHART*       PTSUNNY   81  66  61 S6        30.02F
GOSHEN         MOSUNNY   80  64  58 S6        30.02F
MONTICELLO*    CLOUDY    80  71  73 CALM      30.00F
LOGANSPORT*    PTSUNNY   79  70  73 E3        30.02F
ROCHESTER*     MOSUNNY   81  70  69 S5        30.02F
WARSAW*        PTSUNNY   79  64  61 S3        30.02F
AUBURN*        MOSUNNY   81  63  54 CALM      30.04F
FORT WAYNE     CLOUDY    80  65  59 VRB3      30.04F
HUNTINGTON*    PTSUNNY   79  64  60 S3        30.03S
PERU/GRISSOM   CLOUDY    80  70  70 CALM      30.01F
MARION*        CLOUDY    79  68  69 CALM      30.04S

$$
INZ028>050-270000-
CENTRAL INDIANA

CITY           SKY/WX    TMP DP  RH WIND       PRES   REMARKS
LAFAYETTE      CLOUDY    81  73  76 CALM      29.99F
KOKOMO*        CLOUDY    79  72  79 SE5       30.04S
MUNCIE*        MOSUNNY   82  66  58 S6        30.03F
INDIANAPOLIS   CLOUDY    82  71  69 SE7       30.01F

$$
MIZ043>046-050>051-056>058-064>065-071>073-077>080-270000-
SOUTHWEST LOWER MICHIGAN

CITY           SKY/WX    TMP DP  RH WIND       PRES   REMARKS
BATTLE CREEK   PTSUNNY   80  63  55 S7        30.03F
BENTON HARBOR  CLOUDY    80  67  64 CALM      30.00F
COLDWATER*     PTSUNNY   79  64  58 CALM      30.03F
HILLSDALE*     PTSUNNY   77  61  57 SE3       30.05S
HOLLAND        CLOUDY    80  65  59 SW5       30.01F
GRAND RAPIDS   CLOUDY    79  66  64 SE7       30.01F
KALAMAZOO      CLOUDY    81  61  50 CALM      30.01F
STURGIS*       MOSUNNY   79  66  64 SW5       30.02F
THREE RIVERS*  FAIR      80  63  56 CALM      30.02F

$$
OHZ001>008-015>018-024>025-270000-
NORTHWEST OHIO

CITY           SKY/WX    TMP DP  RH WIND       PRES   REMARKS
WAUSEON*       FAIR      79  64  61 CALM      30.05S
DEFIANCE       PTSUNNY   79  61  53 SW5       30.03F
FINDLAY        MOSUNNY   80  62  54 SW5       30.04F
TOLEDO EXPRESS MOSUNNY   78  63  59 CALM      30.05S
TOLEDO METCALF MOSUNNY   81  62  52 VRB3      30.05F
LIMA           MOSUNNY   79  64  60 SW5       30.06S

$$
AND FOR LAKE MICHIGAN COASTAL AND OPEN LAKE BUOY OBSERVATIONS

STATION/POSITION TEMP    WIND        PRES    VSBY  WAVE
                 AIR SEA DIR/SP/G                  HT/PER
                 (F)     (DEG/KT/KT) (MB)    (MI)  (FT/S)
CALUMET HARBOR    81     200/  5/  8 1014.7F
MICHIGAN CITY     80     160/  7/  8   N/A
BURNS HARBOR      82     210/ 10/ 11 1016.3
SAINT JOSEPH      79      CALM  /  1 1015.9
SOUTH LAKE BUOY   73 71  130/  8/  8 1015.3F         1/ 4
4 MI NW BRIDGMAN  77 76  110/  2/  4 1015.4          0
MICHIGAN CITY     77 76  100/  4/  6   N/A           0

$$
&&




USA.gov is the U.S. government's official web portal to all federal, state and local government web resources and services.